Weather History for Galesburg, IL

Change the Weather History Date:

Friday, February 28, 2014

  Actual Average Record
Temperature  
Mean Temperature 20 °F -  
Max Temperature 36 °F 42 °F 62 °F (1965)
Min Temperature 4 °F 25 °F -6 °F (1962)
Degree Days  
Heating Degree Days 45    
Moisture  
Dew Point 12 °F    
Average Humidity 68    
Maximum Humidity 80    
Minimum Humidity 53    
Precipitation  
Precipitation 0.00 in - - ()
Sea Level Pressure  
Sea Level Pressure 30.01 in    
Wind  
Wind Speed 8 mph (SE)    
Max Wind Speed 15 mph    
Max Gust Speed 24 mph    
Visibility 10 miles    
Events      
Averages and records for this station are not official NWS values.
T = Trace of Precipitation, MM = Missing Value Source: NWS Daily Summary

Daily Weather History Graph

Daily Weather History Graph

Search for Another Location

Airport:

Trip Planner

Search our weather history database for the weather conditions in past years. The results will help you decide how hot, cold, wet, or windy it might be!

Date:

Astronomy

Feb. 28, 2014 Rise Set
Actual Time 6:37 AM CST 5:51 PM CST
Civil Twilight 6:09 AM CST 6:19 PM CST
Nautical Twilight 5:37 AM CST 6:51 PM CST
Astronomical Twilight 5:06 AM CST 7:22 PM CST
Moon 5:52 AM CST (2/28) 5:28 PM CST (2/28)
Length of Visible Light 12h 09m
Length of Day
11h 14m
Waning Crescent, 1% of the Moon is Illuminated
Feb 28
Waning Crescent
Mar 1
New
Mar 8
First Quarter
Mar 16
Full
Mar 23
Last Quarter

Hourly Weather History & Observations

Time (CST) Temp. Windchill Dew Point Humidity Pressure Visibility Wind Dir Wind Speed Gust Speed Precip Events Conditions
12:15 AM 5.0 °F -8.1 °F -1.7 °F 74% 30.13 in 10.0 mi East 8.1 mph - N/A   Scattered Clouds
12:35 AM 5.4 °F -7.6 °F -1.7 °F 73% 30.13 in 10.0 mi East 8.1 mph - N/A   Mostly Cloudy
12:55 AM 5.0 °F -5.6 °F -2.0 °F 73% 30.12 in 10.0 mi East 5.8 mph - N/A   Scattered Clouds
1:15 AM 4.8 °F -5.8 °F -2.2 °F 73% 30.12 in 10.0 mi East 5.8 mph - N/A   Scattered Clouds
1:35 AM 4.6 °F -7.4 °F -2.2 °F 73% 30.11 in 10.0 mi East 6.9 mph - N/A   Scattered Clouds
1:55 AM 4.6 °F -8.5 °F -2.2 °F 73% 30.11 in 10.0 mi ESE 8.1 mph - N/A   Clear
2:15 AM 4.5 °F -7.6 °F -2.2 °F 74% 30.11 in 10.0 mi East 6.9 mph - N/A   Clear
2:35 AM 4.5 °F -6.3 °F -2.2 °F 74% 30.11 in 10.0 mi ESE 5.8 mph - N/A   Clear
2:55 AM 4.5 °F -6.3 °F -1.5 °F 76% 30.12 in 10.0 mi ESE 5.8 mph - N/A   Scattered Clouds
3:15 AM 4.1 °F -8.0 °F -1.7 °F 77% 30.11 in 10.0 mi East 6.9 mph - N/A   Scattered Clouds
3:35 AM 4.1 °F -9.2 °F -1.7 °F 77% 30.10 in 10.0 mi East 8.1 mph - N/A   Scattered Clouds
3:55 AM 4.1 °F -8.0 °F -1.7 °F 77% 30.10 in 10.0 mi ESE 6.9 mph - N/A   Clear
4:15 AM 4.5 °F -7.6 °F -1.3 °F 77% 30.09 in 10.0 mi ESE 6.9 mph - N/A   Scattered Clouds
4:35 AM 5.4 °F -7.6 °F -0.4 °F 77% 30.09 in 10.0 mi ESE 8.1 mph - N/A   Mostly Cloudy
4:55 AM 5.9 °F -5.8 °F 0.1 °F 77% 30.09 in 10.0 mi ESE 6.9 mph - N/A   Overcast
5:15 AM 6.4 °F -6.3 °F 0.5 °F 77% 30.09 in 10.0 mi ESE 8.1 mph - N/A   Overcast
5:35 AM 6.6 °F -7.1 °F 0.9 °F 77% 30.09 in 10.0 mi ESE 9.2 mph - N/A   Mostly Cloudy
5:50 AM 6.6 °F -6.1 °F 1.2 °F 79% 30.09 in 10.0 mi ESE 8.1 mph - N/A   Scattered Clouds
6:15 AM 6.8 °F -5.9 °F 1.8 °F 80% 30.09 in 10.0 mi ESE 8.1 mph - N/A   Mostly Cloudy
6:35 AM 7.2 °F -5.4 °F 2.3 °F 80% 30.09 in 10.0 mi ESE 8.1 mph - N/A   Mostly Cloudy
6:55 AM 8.2 °F -6.0 °F 2.8 °F 79% 30.08 in 10.0 mi ESE 10.4 mph - N/A   Overcast
7:15 AM 9.1 °F -4.9 °F 3.2 °F 77% 30.08 in 10.0 mi ESE 10.4 mph - N/A   Overcast
7:35 AM 9.3 °F -1.7 °F 3.2 °F 76% 30.08 in 10.0 mi ESE 6.9 mph 17.3 mph N/A   Overcast
7:55 AM 10.4 °F -1.5 °F 3.7 °F 74% 30.09 in 10.0 mi ESE 8.1 mph - N/A   Scattered Clouds
8:15 AM 12.2 °F -1.0 °F 4.5 °F 71% 30.07 in 10.0 mi ESE 10.4 mph 16.1 mph N/A   Clear
8:35 AM 13.6 °F 0.7 °F 4.8 °F 68% 30.06 in 10.0 mi SE 10.4 mph 18.4 mph N/A   Clear
8:55 AM 15.1 °F 1.1 °F 5.5 °F 66% 30.05 in 10.0 mi SE 12.7 mph 18.4 mph N/A   Clear
9:15 AM 15.8 °F 3.4 °F 6.6 °F 67% 30.04 in 10.0 mi ESE 10.4 mph 16.1 mph N/A   Clear
9:35 AM 17.1 °F 5.0 °F 7.0 °F 65% 30.04 in 10.0 mi SE 10.4 mph 16.1 mph N/A   Clear
9:55 AM 17.6 °F 5.7 °F 6.6 °F 62% 30.03 in 10.0 mi SE 10.4 mph 17.3 mph N/A   Clear
10:15 AM 20.1 °F 8.1 °F 8.8 °F 62% 30.03 in 10.0 mi SE 11.5 mph 17.3 mph N/A   Clear
10:30 AM 21.6 °F 9.3 °F 9.5 °F 60% 30.02 in 10.0 mi SE 12.7 mph 17.3 mph N/A   Clear
10:55 AM 21.9 °F 10.4 °F 10.0 °F 60% 30.01 in 10.0 mi SE 11.5 mph 18.4 mph N/A   Clear
11:15 AM 23.2 °F 12.0 °F 10.6 °F 59% 30.01 in 10.0 mi SE 11.5 mph 19.6 mph N/A   Clear
11:35 AM 24.6 °F 13.2 °F 11.7 °F 58% 30.00 in 10.0 mi SE 12.7 mph 19.6 mph N/A   Clear
11:55 AM 26.1 °F 14.5 °F 12.2 °F 56% 29.99 in 10.0 mi SSE 13.8 mph 19.6 mph N/A   Clear
12:15 PM 26.8 °F 15.9 °F 12.7 °F 56% 29.99 in 10.0 mi SSE 12.7 mph 24.2 mph N/A   Clear
12:35 PM 28.4 °F 18.5 °F 13.6 °F 54% 29.98 in 10.0 mi SSE 11.5 mph 18.4 mph N/A   Clear
12:55 PM 29.8 °F 20.9 °F 14.7 °F 53% 29.97 in 10.0 mi SSE 10.4 mph 20.7 mph N/A   Clear
1:15 PM 31.3 °F 20.7 °F 16.2 °F 54% 29.96 in 10.0 mi SSE 15.0 mph 19.6 mph N/A   Clear
1:35 PM 32.0 °F 22.5 °F 17.1 °F 54% 29.95 in 10.0 mi SSE 12.7 mph 17.3 mph N/A   Clear
1:55 PM 32.7 °F 25.0 °F 17.8 °F 54% 29.94 in 10.0 mi SE 9.2 mph 16.1 mph N/A   Clear
2:15 PM 33.4 °F 25.9 °F 18.3 °F 54% 29.94 in 10.0 mi SE 9.2 mph - N/A   Clear
2:35 PM 34.2 °F 26.2 °F 18.9 °F 54% 29.93 in 10.0 mi SSE 10.4 mph - N/A   Clear
2:55 PM 34.7 °F 28.8 °F 20.3 °F 56% 29.92 in 10.0 mi SSE 6.9 mph - N/A   Clear
3:10 PM 35.1 °F 27.9 °F 19.9 °F 54% 29.92 in 10.0 mi SSE 9.2 mph - N/A   Clear
3:35 PM 35.8 °F 28.3 °F 21.0 °F 55% 29.92 in 10.0 mi SSE 10.4 mph - N/A   Clear
3:55 PM 35.8 °F 30.9 °F 21.6 °F 56% 29.91 in 10.0 mi SE 5.8 mph - N/A   Clear
4:15 PM 36.1 °F 29.9 °F 22.8 °F 58% 29.91 in 10.0 mi SSE 8.1 mph - N/A   Clear
4:35 PM 36.5 °F 31.8 °F 23.0 °F 58% 29.91 in 10.0 mi SE 5.8 mph - N/A   Clear
4:55 PM 35.4 °F 30.5 °F 23.9 °F 63% 29.91 in 10.0 mi SSE 5.8 mph - N/A   Clear
5:15 PM 34.9 °F 30.8 °F 23.0 °F 62% 29.91 in 10.0 mi SE 4.6 mph - N/A   Clear
5:35 PM 34.3 °F 30.2 °F 23.5 °F 65% 29.91 in 10.0 mi SSE 4.6 mph - N/A   Clear
5:55 PM 33.3 °F 30.2 °F 24.8 °F 71% 29.92 in 10.0 mi SE 3.5 mph - N/A   Clear
6:15 PM 33.3 °F 28.9 °F 24.8 °F 71% 29.93 in 10.0 mi SSE 4.6 mph - N/A   Clear
6:35 PM 33.3 °F 28.9 °F 25.3 °F 73% 29.93 in 10.0 mi SSE 4.6 mph - N/A   Clear
6:55 PM 32.9 °F 29.8 °F 25.3 °F 74% 29.93 in 10.0 mi SE 3.5 mph - N/A   Clear
7:15 PM 32.9 °F 26.7 °F 25.0 °F 73% 29.93 in 10.0 mi SSE 6.9 mph - N/A   Clear
7:35 PM 32.9 °F 27.5 °F 25.2 °F 73% 29.93 in 10.0 mi SSE 5.8 mph - N/A   Scattered Clouds
7:50 PM 32.2 °F 27.7 °F 24.8 °F 74% 29.94 in 10.0 mi SSE 4.6 mph - N/A   Scattered Clouds
8:15 PM 31.8 °F 28.5 °F 23.9 °F 73% 29.94 in 10.0 mi SE 3.5 mph - N/A   Clear
8:35 PM 32.0 °F 27.5 °F 23.4 °F 70% 29.94 in 10.0 mi SE 4.6 mph - N/A   Clear
8:55 PM 32.0 °F 26.4 °F 23.2 °F 70% 29.94 in 10.0 mi SE 5.8 mph - N/A   Clear
9:15 PM 32.0 °F 25.6 °F 23.2 °F 70% 29.94 in 10.0 mi SSE 6.9 mph - N/A   Clear
9:35 PM 31.6 °F 26.0 °F 23.4 °F 71% 29.94 in 10.0 mi SSE 5.8 mph - N/A   Scattered Clouds
9:55 PM 31.5 °F 24.9 °F 23.5 °F 73% 29.95 in 10.0 mi SSE 6.9 mph - N/A   Clear
10:15 PM 31.5 °F 24.9 °F 23.9 °F 74% 29.94 in 10.0 mi SSE 6.9 mph - N/A   Scattered Clouds
10:35 PM 31.8 °F 26.2 °F 24.4 °F 74% 29.94 in 10.0 mi SSE 5.8 mph - N/A   Mostly Cloudy
10:55 PM 32.0 °F 26.4 °F 25.0 °F 75% 29.95 in 10.0 mi SSE 5.8 mph - N/A   Overcast
11:15 PM 32.0 °F 26.4 °F 25.3 °F 76% 29.95 in 10.0 mi SSE 5.8 mph - N/A   Overcast
11:35 PM 32.0 °F 25.6 °F 25.5 °F 77% 29.95 in 10.0 mi South 6.9 mph - N/A   Overcast
11:55 PM 32.7 °F 26.4 °F 25.2 °F 74% 29.96 in 10.0 mi South 6.9 mph - N/A   Overcast